Location: Castelbiague
(43.0361°N, 0.9246°E)
Time: 01:03:54
(UTC+00:00)

Cosmos 1802 Rocket - Visible Passes

Search period start: 24 October 2021 00:00
Search period end: 03 November 2021 00:00
Orbit: 953 x 1012 km, 82.9° (Epoch: 23 October)

Date Brightness Start Highest point End Pass type
(mag) Time Alt. Az. Time Alt. Az. Time Alt. Az.
24 Oct 6.8 05:00:18 10° NE 05:03:01 13° ENE 05:05:45 10° E visible
24 Oct 5.7 18:39:56 15° NE 18:39:56 15° NE 18:41:09 10° NNE visible
24 Oct 5.6 20:24:40 26° NNW 20:24:40 26° NNW 20:27:22 10° N visible
25 Oct 6.4 05:26:15 10° NNE 05:31:13 24° ENE 05:36:11 10° ESE visible
25 Oct 4.8 18:57:43 10° SSE 19:05:58 32° NE 19:09:24 10° NNE visible
25 Oct 5.8 20:44:15 10° SW 20:50:37 25° NW 20:54:27 10° NNW visible
26 Oct 5.5 17:44:02 10° ESE 17:46:29 13° ENE 17:48:57 10° NE visible
26 Oct 3.8 19:24:54 10° S 19:31:01 88° E 19:37:13 10° N visible
26 Oct 6.5 21:14:12 10° W 21:17:28 15° WNW 21:20:44 10° NNW visible
27 Oct 6.9 04:37:45 10° NE 04:40:17 12° ENE 04:42:50 10° E visible
27 Oct 4.8 18:08:47 10° SE 18:13:34 25° E 18:18:24 10° NNE visible
27 Oct 4.7 19:52:46 10° SSW 19:58:42 50° WNW 20:04:41 10° N visible
28 Oct 6.4 05:03:36 10° NNE 05:08:29 23° ENE 05:13:24 10° ESE visible
28 Oct 4.1 18:35:04 10° SSE 18:40:51 46° E 18:46:41 10° NNE visible
28 Oct 5.7 20:21:27 10° SW 20:26:35 28° WNW 20:31:48 10° NNW visible
29 Oct 5.5 05:30:31 10° N 05:36:27 41° ENE 05:42:25 10° SE visible
29 Oct 5.5 17:21:38 10° E 17:23:49 12° ENE 17:26:01 10° ENE visible
29 Oct 3.8 19:02:12 10° S 19:08:18 85° E 19:14:31 10° N visible
29 Oct 6.5 20:51:17 10° W 20:54:43 15° WNW 20:58:10 10° NNW visible
30 Oct 6.9 04:15:14 10° NE 04:17:34 12° ENE 04:19:53 10° E visible
30 Oct 4.9 17:46:11 10° SE 17:50:53 24° E 17:55:37 10° NNE visible
30 Oct 4.6 19:30:02 10° SSW 19:35:58 52° WNW 19:42:01 10° N visible
31 Oct 6.4 04:40:56 10° NNE 04:45:47 22° ENE 04:50:38 10° ESE visible
31 Oct 4.2 18:12:25 10° SSE 18:18:09 44° E 18:23:58 10° NNE visible
31 Oct 5.7 19:58:38 10° SW 20:03:51 29° WNW 20:09:09 10° NNW visible
01 Nov 5.5 05:07:51 10° N 05:13:46 40° ENE 05:19:41 10° SE visible
01 Nov 3.8 18:39:29 10° S 18:45:36 82° E 18:51:49 10° N visible
01 Nov 6.5 20:28:23 10° W 20:31:58 16° WNW 20:35:36 10° NNW visible
02 Nov 6.9 03:52:43 10° NE 03:54:49 12° ENE 03:56:55 10° E visible
02 Nov 4.4 05:35:11 10° N 05:41:32 73° E 05:47:55 10° SSE visible
02 Nov 5.0 17:23:35 10° SE 17:28:13 23° E 17:32:52 10° NE visible
02 Nov 4.6 19:07:17 10° SSW 19:13:15 54° WNW 19:19:20 10° N visible
